Flag for Costa Rica Weather past 2 weeks in San Jose, Costa Rica

Now
72 °F

Clear.


Feels Like: 76 °F
Forecast: 65 / 78 °F
Wind: 17 mph from East

Location: Juan Santamaria

Current Time: Mar 6, 2015 at 11:06:40 PM

Latest Report: Mar 6, 2015 at 10:00 PM


Visibility: 10 mi

Pressure: 30.02 "Hg

Humidity: 57%

Dew point: 55 °F

Location of San JoseLocation

Historic Weather in San Jose — Graph

°F

San Jose temperature yesterday

Maximum temperature yesterday: 86 °F (at 1:00 PM)
Minimum temperature yesterday: 66 °F (at 1:00 AM)
Average temperature yesterday: 74 °F

Past Weeks' High & Low Weather Summary

 TemperatureHumidityPressure
High88 °F (Feb 25, 1:00 PM)83% (Feb 25, 5:00 PM)30.08 "Hg (Feb 25, 5:00 PM)
Low63 °F (Feb 26, 4:00 AM)23% (Mar 3, 1:00 PM)29.90 "Hg (Feb 26, 3:00 PM)
Average74 °F55%29.99 "Hg
* Reported Feb 19 10:00 PM — Mar 6 10:00 PM, San Jose, Weather by CustomWeather, © 2015

Note: Actual official high and low records may vary slightly from our data, if they occured in-between our weather recording intervals... More about our weather records

Advertising

San Jose weather history for previous 24 hours

 ConditionsComfort  
Time TempWeatherWind HumidityBarometerVisibility
10:00 PM
Fri, Mar 6
72 °FClear.17 mph57%30.02 "Hg10 mi
9:00 PM72 °FClear.14 mph57%30.02 "Hg10 mi
8:00 PM73 °FClear.18 mph53%29.99 "Hg10 mi
7:00 PM75 °FClear.17 mph50%29.96 "Hg10 mi
6:00 PM75 °FClear.21 mph50%29.94 "Hg10 mi
5:00 PM77 °FSunny.21 mph47%29.93 "Hg10 mi
4:00 PM84 °FSunny.17 mph33%29.92 "Hg10 mi
3:00 PM84 °FPassing clouds.21 mph35%29.94 "HgN/A
2:00 PM86 °FPassing clouds.21 mph33%29.95 "HgN/A
1:00 PM86 °FSunny.17 mph29%29.97 "Hg10 mi
12:00 PM84 °FSunny.23 mph29%29.99 "Hg10 mi
11:00 AM86 °FSunny.18 mph25%30.01 "Hg10 mi
10:00 AM82 °FPassing clouds.21 mph30%30.03 "HgN/A
9:00 AM79 °FPassing clouds.24 mph39%30.03 "HgN/A
8:00 AM75 °FPassing clouds.16 mph47%30.03 "Hg10 mi
7:00 AM73 °FSunny.13 mph50%30.02 "Hg10 mi
6:00 AM70 °FPassing clouds.21 mph57%29.99 "HgN/A
5:00 AM70 °FClear.13 mph60%29.97 "Hg10 mi
4:00 AM68 °FClear.13 mph64%29.96 "Hg10 mi
3:00 AM68 °FClear.13 mph69%29.97 "Hg10 mi
2:00 AM68 °FClear.14 mph69%29.97 "Hg10 mi
1:00 AM68 °FClear.15 mph64%29.98 "Hg10 mi
12:00 AM68 °FClear.15 mph69%30.00 "Hg10 mi
11:00 PM
Thu, Mar 5
68 °FClear.16 mph69%30.01 "Hg10 mi
Weather by CustomWeather, © 2015

See weather overviewHow to use our weather pages